Find OneWeb SL0124

NORAD ID: 47276 Int'l Des: 2020-100 Owner: ONEWEB Country: UK Constellation: oneweb operational
LEOCIRCULARPOLARONEWEB_TYPE

实时位置

正在加载3D地球...

关于 OneWeb SL0124

正在加载描述...

即将过境

Passes for default location (London). Set your location on the main map for personalized predictions.

高度历史

Loading altitude history...

两行轨道根数

1 47276U 20100U 26126.33565633 .00000338 00000-0 90363-3 0 9998
2 47276 87.8981 358.9707 0001697 78.8833 281.2487 13.12444289259150
Epoch: May 6, 2026 • Age: 16 hours

当前状态

高度 1236.5 km
速度 7.24 km/s
星下点 -56.36°S, 127.28°E
发射日期 Dec 18, 2020
运行时间 5.3 years
类型 internet

技术详情

分类 Payload
质量 148.00 kg
干质量 140.00 kg
总质量 148.00 kg
长度 1.30 m
直径 1.00 m
跨度 5.00 m
形状 Trapezoid+2 pan
制造商 ONEWUS
平台类型 ARROW
阶段状态 In Orbit
所有者/国家 ONEWEB/UK

Most Searched